FW4468 Weather Reports


Display with metric or nautical units.
time (UTC)temp
F
wind
direction
speed
MPH
gust
MPH
rain 1hr
in
rain 24hr
in
rain mn
in
humidity
%
barometer
mb
20260901160108 61 166 1.0 10.0 0.00 0.00 0.00 65 1008.6
20260901154558 60 140 1.0 10.0 0.00 0.00 0.00 66 1008.7
20260901153053 60 161 2.0 8.0 0.00 0.00 0.00 67 1008.7
20260901151546 58 182 2.0 7.0 0.00 0.00 0.00 70 1008.9
20260901150043 57 160 0.0 3.0 0.00 0.00 0.00 77 1008.8
20260901144547 56 152 0.0 1.0 0.00 0.00 0.00 76 1008.9
20260901143046 55 152 0.0 0.0 0.00 0.00 0.00 74 1008.9
20260901141547 55 152 0.0 0.0 0.00 0.00 0.00 74 1009.0
20260901140039 54 152 0.0 2.0 0.00 0.00 0.00 74 1008.9
20260901134539 54 152 0.0 1.0 0.00 0.00 0.00 74 1008.7
20260901133037 54 152 0.0 4.0 0.00 0.00 0.00 76 1008.6
20260901131535 54 153 0.0 4.0 0.00 0.00 0.00 77 1008.5
20260901130033 53 205 0.0 3.0 0.00 0.00 0.00 77 1008.5
20260901124532 52 238 0.0 3.0 0.00 0.00 0.00 72 1008.4
20260901123032 52 276 0.0 0.0 0.00 0.00 0.00 70 1008.2
20260901121532 52 276 0.0 0.0 0.00 0.00 0.00 70 1008.2
20260901120031 52 276 0.0 0.0 0.00 0.00 0.00 71 1008.2
20260901114534 52 276 0.0 0.0 0.00 0.00 0.00 70 1008.2
20260901113027 52 276 0.0 0.0 0.00 0.00 0.00 70 1008.2
20260901111525 52 276 0.0 0.0 0.00 0.00 0.00 69 1008.2
20260901110025 52 276 0.0 0.0 0.00 0.00 0.00 69 1008.3
20260901104524 52 276 0.0 0.0 0.00 0.00 0.00 69 1008.4
20260901103023 52 276 0.0 0.0 0.00 0.00 0.00 68 1008.4
20260901101520 52 276 0.0 0.0 0.00 0.00 0.00 68 1008.6
20260901100018 53 276 0.0 0.0 0.00 0.00 0.00 68 1008.3
20260901094528 53 276 0.0 0.0 0.00 0.00 0.00 68 1008.3
20260901093017 53 276 0.0 0.0 0.00 0.00 0.00 67 1008.2
20260901091518 53 276 0.0 0.0 0.00 0.00 0.00 67 1008.4
20260901090013 54 276 0.0 0.0 0.00 0.00 0.00 67 1008.2
20260901084511 54 276 0.0 0.0 0.00 0.00 0.00 67 1008.1
20260901083010 54 276 0.0 0.0 0.00 0.00 0.00 67 1008.1
20260901081510 55 276 0.0 0.0 0.00 0.00 0.00 67 1008.2
20260901080007 55 276 0.0 0.0 0.00 0.00 0.00 66 1008.0
20260901074503 55 276 0.0 1.0 0.00 0.00 0.00 66 1008.0
20260901073003 56 276 0.0 0.0 0.00 0.00 0.00 66 1008.0
20260901071600 56 276 0.0 0.0 0.00 0.00 0.00 65 1008.0
20260901070107 57 276 0.0 0.0 0.00 0.00 0.00 64 1007.9
20260901064556 58 276 0.0 0.0 0.00 0.00 0.00 63 1007.7
20260901063055 58 276 0.0 0.0 0.00 0.00 0.00 62 1008.0
20260901061555 59 276 0.0 1.0 0.00 0.00 0.00 61 1008.1
20260901060055 59 276 0.0 2.0 0.00 0.00 0.00 61 1008.2
20260901054558 59 275 0.0 3.0 0.00 0.00 0.00 61 1008.1
20260901053055 59 144 0.0 1.0 0.00 0.00 0.00 60 1008.2
20260901051555 60 144 0.0 0.0 0.00 0.00 0.00 59 1008.3
20260901050054 61 144 0.0 0.0 0.00 0.00 0.00 57 1008.3
20260901044559 62 144 0.0 0.0 0.00 0.00 0.00 56 1008.4
20260901043053 62 144 0.0 1.0 0.00 0.00 0.00 55 1008.3
20260901041551 63 138 0.0 3.0 0.00 0.00 0.00 54 1008.3
20260901040052 63 79 0.0 2.0 0.00 0.00 0.00 53 1008.3
20260901034550 64 121 0.0 2.0 0.00 0.00 0.00 52 1008.1
20260901033109 65 165 0.0 4.0 0.00 0.00 0.00 51 1007.9
20260901031549 66 137 0.0 2.0 0.00 0.00 0.00 50 1007.8
20260901030058 67 266 1.0 4.0 0.00 0.00 0.00 48 1007.7
20260901024549 68 100 0.0 3.0 0.00 0.00 0.00 46 1007.7
20260901023049 68 157 0.0 2.0 0.00 0.00 0.00 45 1007.8
20260901021559 68 150 1.0 5.0 0.00 0.00 0.00 45 1007.8
20260901020046 69 35 1.0 4.0 0.00 0.00 0.00 46 1007.9
20260901014545 69 258 1.0 4.0 0.00 0.00 0.00 47 1007.9
20260901013052 69 320 0.0 6.0 0.00 0.00 0.00 47 1007.8
20260901011607 70 320 1.0 8.0 0.00 0.00 0.00 46 1008.0
20260901010042 70 196 1.0 5.0 0.00 0.00 0.00 44 1008.1
20260901004542 71 319 1.0 4.0 0.00 0.00 0.00 44 1008.1
20260901003047 71 85 3.0 10.0 0.00 0.00 0.00 43 1008.1
20260901001539 73 148 1.0 8.0 0.00 0.00 0.00 42 1008.3
20260901000036 73 46 3.0 8.0 0.00 0.00 0.00 40 1008.4
20260831234536 74 103 1.0 8.0 0.00 0.00 0.00 41 1008.5
20260831233036 75 107 2.0 9.0 0.00 0.00 0.00 40 1008.6
20260831231533 74 148 1.0 9.0 0.00 0.00 0.00 43 1008.7
20260831230031 74 63 1.0 5.0 0.00 0.00 0.00 41 1008.9
20260831224529 73 101 2.0 13.0 0.00 0.00 0.00 40 1009.0
20260831223036 73 279 2.0 7.0 0.00 0.00 0.00 41 1009.1
20260831221526 75 51 3.0 7.0 0.00 0.00 0.00 39 1009.2
20260831220028 74 243 1.0 8.0 0.00 0.00 0.00 39 1009.5
20260831214523 75 316 2.0 8.0 0.00 0.00 0.00 38 1009.7
20260831213022 75 242 1.0 12.0 0.00 0.00 0.00 39 1009.9
20260831211532 75 355 3.0 11.0 0.00 0.00 0.00 37 1010.0
20260831210017 74 325 3.0 10.0 0.00 0.00 0.00 39 1010.3
20260831204515 74 49 3.0 11.0 0.00 0.00 0.00 38 1010.5
20260831203012 74 267 3.0 12.0 0.00 0.00 0.00 35 1010.8
20260831201509 74 230 2.0 10.0 0.00 0.00 0.00 39 1010.8
20260831200006 73 179 2.0 11.0 0.00 0.00 0.00 41 1010.9
20260831194503 73 236 3.0 7.0 0.00 0.00 0.00 43 1011.0
20260831193000 71 17 2.0 8.0 0.00 0.00 0.00 44 1011.2
20260831191557 71 173 2.0 8.0 0.00 0.00 0.00 43 1011.4
20260831190108 71 54 2.0 9.0 0.00 0.00 0.00 45 1011.4
20260831184552 70 325 2.0 11.0 0.00 0.00 0.00 48 1011.7
20260831183051 69 57 1.0 6.0 0.00 0.00 0.00 50 1012.1
20260831181552 68 36 2.0 7.0 0.00 0.00 0.00 50 1012.1
20260831180054 68 180 2.0 9.0 0.00 0.00 0.00 51 1012.4
20260831174540 67 113 2.0 11.0 0.00 0.00 0.00 53 1012.5
20260831173038 66 328 1.0 8.0 0.00 0.00 0.00 54 1012.8
20260831171534 66 88 2.0 7.0 0.00 0.00 0.00 56 1012.9
20260831170030 64 138 1.0 9.0 0.00 0.00 0.00 57 1012.7
20260831164528 63 43 1.0 8.0 0.00 0.00 0.00 59 1012.8
20260831163025 62 65 1.0 5.0 0.00 0.00 0.00 63 1012.8
20260831161522 60 295 0.0 7.0 0.00 0.00 0.00 63 1013.0